| time (UTC) | temp F | wind direction | speed MPH | gust MPH | rain 1hr in | rain 24hr in | rain mn in | humidity % | barometer mb |
| 20260506024505 | 47 | 68 | 9.0 | 12.0 | 0.00 | 0.00 | 0.00 | 57 | 1011.5 |
| 20260506023003 | 47 | 71 | 9.0 | 13.0 | 0.00 | 0.00 | 0.00 | 56 | 1011.7 |
| 20260506021502 | 47 | 87 | 8.0 | 12.0 | 0.00 | 0.00 | 0.00 | 56 | 1011.9 |
| 20260506020100 | 47 | 83 | 6.0 | 13.0 | 0.00 | 0.00 | 0.00 | 59 | 1011.9 |
| 20260506014558 | 47 | 77 | 9.0 | 12.0 | 0.00 | 0.00 | 0.00 | 61 | 1011.9 |
| 20260506013055 | 47 | 72 | 5.0 | 11.0 | 0.00 | 0.00 | 0.00 | 61 | 1011.9 |
| 20260506011612 | 48 | 80 | 8.0 | 12.0 | 0.00 | 0.00 | 0.00 | 57 | 1011.8 |
| 20260506010059 | 48 | 86 | 7.0 | 15.0 | 0.00 | 0.00 | 0.00 | 58 | 1011.8 |
| 20260506004603 | 49 | 68 | 10.0 | 16.0 | 0.00 | 0.00 | 0.00 | 52 | 1011.6 |
| 20260506003101 | 49 | 67 | 12.0 | 16.0 | 0.00 | 0.00 | 0.00 | 52 | 1011.5 |
| 20260506001542 | 49 | 49 | 11.0 | 16.0 | 0.00 | 0.00 | 0.00 | 57 | 1011.6 |
| 20260506000040 | 49 | 69 | 13.0 | 17.0 | 0.00 | 0.00 | 0.00 | 54 | 1011.5 |
| 20260505234558 | 50 | 72 | 14.0 | 18.0 | 0.00 | 0.00 | 0.00 | 57 | 1011.5 |
| 20260505233039 | 50 | 63 | 13.0 | 18.0 | 0.00 | 0.00 | 0.00 | 57 | 1011.7 |
| 20260505231536 | 50 | 60 | 12.0 | 18.0 | 0.00 | 0.00 | 0.00 | 62 | 1011.4 |
| 20260505230040 | 50 | 56 | 14.0 | 18.0 | 0.00 | 0.00 | 0.00 | 60 | 1011.5 |
| 20260505224530 | 50 | 63 | 11.0 | 15.0 | 0.00 | 0.00 | 0.00 | 66 | 1011.6 |
| 20260505223027 | 50 | 60 | 12.0 | 16.0 | 0.00 | 0.00 | 0.00 | 66 | 1011.8 |
| 20260505221524 | 50 | 53 | 11.0 | 16.0 | 0.00 | 0.00 | 0.00 | 65 | 1011.8 |
| 20260505220029 | 50 | 56 | 12.0 | 15.0 | 0.00 | 0.00 | 0.00 | 66 | 1011.9 |
| 20260505214523 | 50 | 49 | 9.0 | 13.0 | 0.00 | 0.00 | 0.00 | 68 | 1012.0 |
| 20260505213019 | 50 | 53 | 9.0 | 12.0 | 0.00 | 0.00 | 0.00 | 66 | 1011.9 |
| 20260505211518 | 50 | 63 | 9.0 | 14.0 | 0.00 | 0.00 | 0.00 | 67 | 1012.0 |
| 20260505210017 | 50 | 57 | 10.0 | 13.0 | 0.00 | 0.00 | 0.00 | 67 | 1012.1 |
| 20260505204515 | 50 | 67 | 10.0 | 14.0 | 0.00 | 0.00 | 0.00 | 67 | 1011.9 |
| 20260505203015 | 50 | 43 | 10.0 | 13.0 | 0.00 | 0.00 | 0.00 | 68 | 1012.0 |
| 20260505201518 | 50 | 46 | 9.0 | 13.0 | 0.00 | 0.00 | 0.00 | 69 | 1012.0 |
| 20260505200013 | 50 | 66 | 10.0 | 14.0 | 0.00 | 0.00 | 0.00 | 69 | 1012.0 |
| 20260505194528 | 50 | 34 | 9.0 | 12.0 | 0.00 | 0.00 | 0.00 | 68 | 1012.0 |
| 20260505193031 | 50 | 51 | 8.0 | 13.0 | 0.00 | 0.00 | 0.00 | 67 | 1012.0 |
| 20260505191511 | 50 | 44 | 7.0 | 10.0 | 0.00 | 0.00 | 0.00 | 69 | 1011.9 |
| 20260505190012 | 50 | 35 | 8.0 | 11.0 | 0.00 | 0.00 | 0.00 | 68 | 1012.0 |
| 20260505184510 | 50 | 55 | 9.0 | 13.0 | 0.00 | 0.00 | 0.00 | 67 | 1011.9 |
| 20260505183013 | 50 | 50 | 8.0 | 13.0 | 0.00 | 0.00 | 0.00 | 66 | 1011.7 |
| 20260505181508 | 50 | 56 | 8.0 | 11.0 | 0.00 | 0.00 | 0.00 | 63 | 1011.6 |
| 20260505180007 | 50 | 52 | 8.0 | 11.0 | 0.00 | 0.00 | 0.00 | 65 | 1011.6 |
| 20260505174510 | 50 | 37 | 9.0 | 13.0 | 0.00 | 0.00 | 0.00 | 63 | 1011.6 |
| 20260505173006 | 50 | 30 | 11.0 | 14.0 | 0.00 | 0.00 | 0.00 | 64 | 1011.7 |
| 20260505171505 | 50 | 35 | 11.0 | 13.0 | 0.00 | 0.00 | 0.00 | 65 | 1011.8 |
| 20260505170011 | 50 | 31 | 10.0 | 16.0 | 0.00 | 0.00 | 0.00 | 64 | 1011.7 |
| 20260505164505 | 49 | 45 | 13.0 | 16.0 | 0.00 | 0.00 | 0.00 | 63 | 1011.8 |
| 20260505163004 | 49 | 63 | 13.0 | 15.0 | 0.00 | 0.00 | 0.00 | 65 | 1011.9 |
| 20260505161503 | 49 | 36 | 12.0 | 15.0 | 0.00 | 0.00 | 0.00 | 65 | 1011.9 |
| 20260505153002 | 49 | 30 | 13.0 | 17.0 | 0.00 | 0.00 | 0.00 | 66 | 1012.2 |
| 20260505151600 | 49 | 24 | 14.0 | 17.0 | 0.00 | 0.00 | 0.00 | 67 | 1012.2 |
| 20260505151528 | 49 | 37 | 14.0 | 17.0 | 0.00 | 0.00 | 0.00 | 67 | 1012.2 |
| 20260505124553 | 49 | 2 | 8.0 | 12.0 | 0.00 | 0.00 | 0.00 | 74 | 1012.2 |
| 20260505123109 | 49 | 26 | 9.0 | 13.0 | 0.00 | 0.00 | 0.00 | 72 | 1012.3 |
| 20260505121550 | 49 | 41 | 11.0 | 16.0 | 0.00 | 0.00 | 0.00 | 74 | 1012.4 |
| 20260505120051 | 49 | 359 | 10.0 | 15.0 | 0.00 | 0.00 | 0.00 | 75 | 1012.2 |
| 20260505114610 | 49 | 337 | 10.0 | 14.0 | 0.00 | 0.00 | 0.00 | 74 | 1012.3 |
| 20260505113048 | 49 | 28 | 10.0 | 13.0 | 0.00 | 0.00 | 0.00 | 74 | 1012.3 |
| 20260505111602 | 48 | 354 | 9.0 | 13.0 | 0.00 | 0.00 | 0.00 | 73 | 1012.3 |
| 20260505101546 | 48 | 355 | 9.0 | 13.0 | 0.00 | 0.00 | 0.00 | 76 | 1012.3 |
| 20260505100045 | 48 | 32 | 9.0 | 14.0 | 0.00 | 0.00 | 0.00 | 77 | 1012.3 |
| 20260505094546 | 48 | 24 | 11.0 | 14.0 | 0.00 | 0.00 | 0.00 | 77 | 1012.2 |
| 20260505093041 | 48 | 2 | 9.0 | 16.0 | 0.00 | 0.00 | 0.00 | 78 | 1012.1 |
| 20260505091539 | 48 | 357 | 10.0 | 15.0 | 0.00 | 0.00 | 0.00 | 78 | 1012.1 |
| 20260505090048 | 48 | 4 | 10.0 | 14.0 | 0.00 | 0.00 | 0.00 | 78 | 1012.0 |
| 20260505084539 | 49 | 49 | 11.0 | 15.0 | 0.00 | 0.00 | 0.00 | 78 | 1012.0 |
| 20260505083046 | 49 | 35 | 8.0 | 12.0 | 0.00 | 0.00 | 0.00 | 77 | 1011.8 |
| 20260505081545 | 49 | 16 | 8.0 | 12.0 | 0.00 | 0.00 | 0.00 | 78 | 1011.9 |
| 20260505080041 | 48 | 359 | 8.0 | 14.0 | 0.00 | 0.00 | 0.00 | 79 | 1011.7 |
| 20260505074538 | 48 | 4 | 10.0 | 15.0 | 0.00 | 0.00 | 0.00 | 79 | 1011.7 |
| 20260505073033 | 48 | 3 | 12.0 | 16.0 | 0.00 | 0.00 | 0.00 | 79 | 1011.7 |
| 20260505071537 | 49 | 335 | 11.0 | 17.0 | 0.00 | 0.00 | 0.00 | 79 | 1011.6 |
| 20260505070033 | 48 | 353 | 10.0 | 14.0 | 0.00 | 0.00 | 0.00 | 75 | 1011.6 |
| 20260505064540 | 48 | 25 | 9.0 | 14.0 | 0.00 | 0.00 | 0.00 | 77 | 1011.5 |
| 20260505063024 | 48 | 1 | 12.0 | 15.0 | 0.00 | 0.00 | 0.00 | 78 | 1011.4 |
| 20260505061534 | 48 | 356 | 11.0 | 15.0 | 0.00 | 0.00 | 0.00 | 80 | 1011.4 |
| 20260505060027 | 48 | 352 | 12.0 | 15.0 | 0.00 | 0.00 | 0.00 | 80 | 1011.6 |
| 20260505054521 | 48 | 19 | 13.0 | 17.0 | 0.00 | 0.00 | 0.00 | 79 | 1011.4 |
| 20260505053018 | 48 | 332 | 12.0 | 16.0 | 0.00 | 0.00 | 0.00 | 80 | 1011.4 |
| 20260505051515 | 48 | 358 | 10.0 | 15.0 | 0.00 | 0.00 | 0.00 | 79 | 1011.4 |
| 20260505041513 | 48 | 314 | 6.0 | 13.0 | 0.00 | 0.00 | 0.00 | 82 | 1011.2 |
| 20260505040011 | 48 | 307 | 7.0 | 11.0 | 0.00 | 0.00 | 0.00 | 81 | 1011.2 |
| 20260505034507 | 48 | 344 | 12.0 | 17.0 | 0.00 | 0.00 | 0.00 | 80 | 1011.1 |
| 20260505033005 | 48 | 3 | 12.0 | 17.0 | 0.00 | 0.00 | 0.00 | 80 | 1011.1 |
| 20260505031502 | 48 | 340 | 12.0 | 16.0 | 0.00 | 0.00 | 0.00 | 81 | 1011.1 |
| 20260505030002 | 48 | 350 | 11.0 | 15.0 | 0.00 | 0.01 | 0.00 | 80 | 1011.1 |